Location: *
(35.8942°N, 23.3025°E)
Time: 23:46:25
(UTC+00:00)

N. Korean satellite - Pass Details

Date: 30 November 2022
Orbit: 407 x 442 km, 97.3° (Epoch: 05 February)

Event Time Altitude Azimuth Distance (km) Brightness Sun altitude
Rises 02:57:19 0° 28° (NNE) 2,519 10.5 -27.9°
Reaches altitude 10° 02:59:47 10° 46° (NE) 1,632 9.7 -27.4°
Maximum altitude 03:02:26 20° 95° (E) 1,131 9.2 -26.8°
Drops below altitude 10° 03:05:03 10° 145° (SE) 1,605 9.7 -26.3°
Sets 03:07:27 0° 162° (SSE) 2,463 10.5 -25.8°
